LiveATC.Net - Listen to live air traffic control over the Internet!


ICAO: CYQR  IATA: YQR   Airport: Regina International Airport
City: Regina   State/Province: Saskatchewan
Country: Canada   Continent: North America
CYQR METAR Weather: CYQR 250300Z 14008KT 15SM BKN160 19/16 A2968 RMK AC7 SLP055 DENSITY ALT 3200FT
CYQR Flight Activity (FlightAware)

CYQR Tower
Feed Status: DOWN
Last heard on: 2019-08-25 03:40:05 (0 days 0 hours 1 minutes ago)
CYQR Tower Audio Archives
FacilityFrequency
Regina Tower118.600

NOTICE

Unauthorized use prohibited. See LiveATC.net Terms of Service


Airport/ARTCC Code
Frequency Search
(e.g., 124.400, 128.75)
Site-wide search
 


Browse LiveATC Feeds
Top 50 LiveATC Feeds
LiveATC Feed Map
Bad Weather Areas

LiveATC FAQ
Offer LiveATC feed
Contact LiveATC.net
Press Inquiries

LiveATC on iPhone
LiveATC on Android

Windows Phone
Windows 8/10

LiveATC Mobile
(Mobile browser)

ATC Audio Archives
Interesting Recordings

LiveATC Forums


Home Page
About LiveATC.net
Make a Donation
Terms of Use
Privacy Policy

Canadian Air Freqs

AIRMETs/SIGMETs

FAA Airport Status
Nat'l Airspace Status
Arrival Demand Charts


Server Software By:
Icecast.org
Liquidsoap